User: anonymous   Login
Location: Staunton
(38.1490°N, 79.0720°W)
Time: 06:14:58
(UTC-04:00)
Language:

ISS - Orbit

View from above orbital plane
View from above orbital plane
View from above satellite
View from above satellite

Ground track
Ground track

The orbit data is extracted from the following two-line orbital elements,

1 25544U 98067A   17119.22562360  .00016717  00000-0  10270-3 0  9035
2 25544  51.6420 282.3498 0005552 103.0091 257.1682 15.53943231 14133
Epoch (UTC): 29 April 2017 05:24:53
Eccentricity: 0.0005552
inclination: 51.6420°
perigee height: 401 km
apogee height: 409 km
right ascension of ascending node: 282.3498°
argument of perigee: 103.0091°
revolutions per day: 15.53943231
mean anomaly at epoch: 257.1682°
orbit number at epoch: 1413

The dashed part of the orbit path shows where the satellite is in the earth's shadow,  

DLR